N4VTB-13 Weather Reports


time (UTC)temp
F
wind
direction
speed
knots
gust
knots
rain 1hr
in
rain 24hr
in
rain mn
in
humidity
%
barometer
mb
20260505005115 79 135 0.9 1.7 0.00 0.00 0.00 37 1010.2
20260505004115 80 0.0 0.9 0.00 0.00 0.00 37 1010.2
20260505003115 79 248 0.9 0.9 0.00 0.00 0.00 36 1010.3
20260505002136 79 0.0 0.9 0.00 0.00 0.00 37 1010.2
20260505001115 79 135 1.7 2.6 0.00 0.00 0.00 37 1010.2
20260505000135 79 293 0.9 1.7 0.00 0.00 0.00 37 1010.3
20260504235115 78 135 1.7 2.6 0.00 0.00 0.00 38 1010.3
20260504234115 79 158 1.7 2.6 0.00 0.00 0.00 37 1010.4
20260504233115 79 315 1.7 2.6 0.00 0.00 0.00 36 1010.5
20260504232115 79 315 0.9 1.7 0.00 0.00 0.00 37 1010.5
20260504231115 80 0.0 0.9 0.00 0.00 0.00 36 1010.6
20260504230135 80 315 0.9 0.9 0.00 0.00 0.00 36 1010.6
20260504225115 79 0.0 0.9 0.00 0.00 0.00 36 1010.7
20260504224117 79 0.0 0.9 0.00 0.00 0.00 36 1010.8
20260504223117 79 0.0 0.9 0.00 0.00 0.00 36 1010.9
20260504222117 80 135 1.7 3.5 0.00 0.00 0.00 34 1011.2
20260504221117 79 0.0 0.9 0.00 0.00 0.00 37 1011.2
20260504220117 80 225 0.9 1.7 0.00 0.00 0.00 36 1011.4
20260504215117 80 0.0 0.9 0.00 0.00 0.00 36 1011.5
20260504214117 80 248 0.9 1.7 0.00 0.00 0.00 34 1011.4
20260504213117 80 315 0.9 0.9 0.00 0.00 0.00 34 1011.4
20260504212117 80 0.0 0.9 0.00 0.00 0.00 34 1011.5
20260504211137 80 315 0.9 1.7 0.00 0.00 0.00 32 1011.5
20260504210117 81 338 0.9 1.7 0.00 0.00 0.00 32 1011.6
20260504205117 81 0.0 0.9 0.00 0.00 0.00 35 1011.6
20260504204117 80 225 0.9 1.7 0.00 0.00 0.00 33 1011.6
20260504203117 81 0.0 0.9 0.00 0.00 0.00 37 1011.6
20260504202117 80 0.0 0.9 0.00 0.00 0.00 38 1011.5
20260504201137 80 0.0 0.9 0.00 0.00 0.00 38 1011.7
20260504200117 80 203 0.9 1.7 0.00 0.00 0.00 39 1011.7
20260504195137 80 135 1.7 2.6 0.00 0.00 0.00 38 1011.7
20260504194117 79 248 0.9 3.5 0.00 0.00 0.00 40 1011.7
20260504193117 79 135 0.9 1.7 0.00 0.00 0.00 38 1011.8
20260504192157 80 0.0 0.9 0.00 0.00 0.00 39 1011.9
20260504191116 78 0.0 0.9 0.00 0.00 0.00 41 1011.9
20260504190117 79 0.0 0.9 0.00 0.00 0.00 42 1012.0
20260504185117 76 158 0.9 2.6 0.00 0.00 0.00 42 1012.0
20260504184116 77 0.0 0.9 0.00 0.00 0.00 40 1012.2
20260504183117 78 68 0.9 0.9 0.00 0.00 0.00 42 1012.1
20260504182157 75 180 0.9 1.7 0.00 0.00 0.00 44 1012.0
20260504181116 75 315 2.6 5.2 0.00 0.00 0.00 44 1012.0
20260504180117 75 0.0 0.9 0.00 0.00 0.00 46 1012.1
20260504175117 74 135 0.9 1.7 0.00 0.00 0.00 47 1012.1
20260504174116 74 180 0.9 1.7 0.00 0.00 0.00 48 1012.0
20260504173116 73 68 0.9 1.7 0.00 0.00 0.00 48 1012.0
20260504172117 72 0.0 0.9 0.00 0.00 0.00 51 1012.0
20260504171116 72 158 0.9 1.7 0.00 0.00 0.00 50 1012.0
20260504170117 71 0.0 0.9 0.00 0.00 0.00 54 1012.0
20260504160116 63 0.0 0.0 0.00 0.00 0.00 64 1011.8
20260504151117 57 0.0 0.0 0.00 0.00 0.00 76 1011.5
20260504150116 57 0.0 0.9 0.00 0.00 0.00 77 1011.3
20260504141116 55 0.0 0.0 0.00 0.00 0.00 82 1011.1
20260504140116 55 0.0 0.0 0.00 0.00 0.00 83 1010.9
20260504130136 54 0.0 0.0 0.00 0.00 0.00 87 1010.7
20260504120116 55 0.0 0.0 0.00 0.00 0.00 85 1010.6
20260504110116 56 0.0 0.0 0.00 0.00 0.00 81 1010.6
20260504100136 58 0.0 0.0 0.00 0.00 0.00 77 1010.6
20260504090116 59 0.0 0.0 0.00 0.00 0.00 73 1010.5
20260504081116 60 0.0 0.0 0.00 0.00 0.00 71 1010.7
20260504080115 60 0.0 0.0 0.00 0.00 0.00 71 1010.7
20260504070116 62 0.0 0.0 0.00 0.00 0.00 67 1010.9
20260504060116 62 0.0 0.0 0.00 0.00 0.00 64 1010.7
20260504050116 63 0.0 0.0 0.00 0.00 0.00 62 1010.6
20260504045116 63 0.0 0.0 0.00 0.00 0.00 62 1010.5
20260504044116 63 0.0 0.0 0.00 0.00 0.00 61 1010.5
20260504043136 64 0.0 0.0 0.00 0.00 0.00 61 1010.6
20260504042115 64 0.0 0.0 0.00 0.00 0.00 62 1010.6
20260504041116 65 0.0 0.0 0.00 0.00 0.00 60 1010.5
20260504040115 66 0.0 0.0 0.00 0.00 0.00 60 1010.4
20260504035116 66 0.0 0.0 0.00 0.00 0.00 61 1010.2
20260504034116 67 0.0 0.0 0.00 0.00 0.00 59 1010.2
20260504033116 68 0.0 0.0 0.00 0.00 0.00 58 1010.2
20260504032115 69 0.0 0.0 0.00 0.00 0.00 58 1010.2
20260504031155 69 0.0 0.9 0.00 0.00 0.00 57 1010.1
20260504030116 70 0.0 0.0 0.00 0.00 0.00 57 1010.2
20260504025115 71 0.0 0.9 0.00 0.00 0.00 57 1010.2
20260504024115 72 0.0 0.0 0.00 0.00 0.00 56 1010.2
20260504023156 73 338 0.9 1.7 0.00 0.00 0.00 55 1010.1
20260504022135 74 0.0 0.0 0.00 0.00 0.00 54 1010.2
20260504021136 74 0.0 0.9 0.00 0.00 0.00 50 1010.2
20260504020116 75 338 0.9 1.7 0.00 0.00 0.00 49 1010.3
20260504015115 76 0.0 0.0 0.00 0.00 0.00 51 1010.4
20260504014115 77 0.0 0.0 0.00 0.00 0.00 48 1010.4
20260504013117 77 0.0 0.0 0.00 0.00 0.00 47 1010.5
20260504012115 78 203 0.9 1.7 0.00 0.00 0.00 45 1010.5
20260504011135 79 0.0 0.9 0.00 0.00 0.00 43 1010.6
20260504010115 80 315 0.9 0.9 0.00 0.00 0.00 42 1010.7